This is the latest recevied weather packets stored in our database for station/object Ostrach. If no packets are shown the sender has not sent any weather packets the latest 10 day(s).
| Time | Temp. | Humidity | Pressure | Rain* | Wind** | Luminosity | Snow |
|---|---|---|---|---|---|---|---|
| 1777577529 | 11.11° C | 31% | 1022.7 hPa | 0 mm | - | - | - |
| 1777575735 | 11.67° C | 29% | 1022.3 hPa | 0 mm | - | - | - |
| 1777573930 | 12.78° C | 28% | 1022.2 hPa | 0 mm | - | - | - |
| 1777572132 | 13.89° C | 27% | 1021.9 hPa | 0 mm | - | - | - |
| 1777570330 | 14.44° C | 26% | 1021.7 hPa | 0 mm | - | - | - |
| 1777568531 | 15.56° C | 24% | 1021.7 hPa | 0 mm | - | - | - |
| 1777566730 | 15.56° C | 22% | 1021.6 hPa | 0 mm | - | - | - |
| 1777564930 | 16.67° C | 22% | 1021.3 hPa | 0 mm | - | - | - |
| 1777563132 | 16.67° C | 21% | 1021.3 hPa | 0 mm | - | - | - |
| 1777559530 | 16.67° C | 24% | 1021.1 hPa | 0 mm | - | - | - |
| 1777557730 | 16.67° C | 23% | 1021.3 hPa | 0 mm | - | - | - |
| 1777555931 | 16.67° C | 25% | 1021.3 hPa | 0 mm | - | - | - |
| 1777554130 | 16.11° C | 24% | 1021.3 hPa | 0 mm | - | - | - |
| 1777552332 | 16.11° C | 30% | 1021.6 hPa | 0 mm | - | - | - |
| 1777550530 | 15.56° C | 31% | 1021.8 hPa | 0 mm | - | - | - |
| 1777548730 | 15° C | 31% | 1021.9 hPa | 0 mm | - | - | - |
| 1777546931 | 14.44° C | 36% | 1021.8 hPa | 0 mm | - | - | - |
| 1777545130 | 13.89° C | 37% | 1021.9 hPa | 0 mm | - | - | - |
| 1777543330 | 13.33° C | 37% | 1021.9 hPa | 0 mm | - | - | - |
| 1777541531 | 12.78° C | 37% | 1022.2 hPa | 0 mm | - | - | - |
| 1777539731 | 12.22° C | 39% | 1022.2 hPa | 0 mm | - | - | - |
| 1777537942 | 11.11° C | 41% | 1022.3 hPa | 0 mm | - | - | - |
| 1777536137 | 9.44° C | 42% | 1022.2 hPa | 0 mm | - | - | - |
| 1777534332 | 8.33° C | 47% | 1022.2 hPa | 0 mm | - | - | - |
| 1777532532 | 6.67° C | 47% | 1022 hPa | 0 mm | - | - | - |
* Rain since midnight (hover to see other rain measurements)
** Current wind speed in m/s (hover to see current wind gust speed)